When you browse on this site, cookies collect data to enhance your experience and personalize the content and advertising you see.
Visit our Privacy Policy to learn more. By continuing to use the site, you agree to this use of cookies and data.
  • In Portugal
  • List of Countries
  • For 7 days
  • Water Temperature
  • Weather Map
  • Weather Widgets
  • user-avatar
    Login

    Hourly Weather Podobin

    Today, 19 January, Sunday

    Time Temperature Precipitation Wind Pressure Humidity
    00:00 0°C° 0.1 mm 1 mps 725 mmHg 90%
    01:00 0°C° 0 mm 1 mps 725 mmHg 93%
    02:00 +1°C° 0.4 mm 1 mps 725 mmHg 94%
    03:00 +1°C° 0.4 mm 1 mps 725 mmHg 95%
    04:00 +1°C° 0.4 mm 1 mps 725 mmHg 97%
    05:00 +1°C° 0.4 mm 1 mps 726 mmHg 97%
    06:00 +1°C° 0.4 mm 1 mps 726 mmHg 97%
    07:00 +1°C° 0.4 mm 1 mps 726 mmHg 98%
    08:00 +1°C° 0.3 mm 1 mps 726 mmHg 97%
    09:00 +1°C° 0.3 mm 1 mps 727 mmHg 97%
    10:00 +1°C° 0.3 mm 1 mps 727 mmHg 96%
    11:00 +2°C° 0.2 mm 1 mps 727 mmHg 96%
    12:00 +2°C° 0.2 mm 1 mps 728 mmHg 95%
    13:00 +2°C° 0.2 mm 1 mps 728 mmHg 95%
    14:00 +2°C° 0.2 mm 1 mps 728 mmHg 96%
    15:00 +2°C° 0.2 mm 1 mps 729 mmHg 97%
    16:00 +1°C° 0.2 mm 1 mps 729 mmHg 97%
    17:00 +1°C° 0.3 mm 1 mps 730 mmHg 98%
    18:00 +1°C° 0.3 mm 1 mps 730 mmHg 98%
    19:00 +1°C° 0.3 mm 1 mps 731 mmHg 98%
    20:00 +1°C° 0.2 mm 1 mps 731 mmHg 98%
    21:00 +1°C° 0.2 mm 1 mps 732 mmHg 98%
    22:00 +1°C° 0.2 mm 1 mps 732 mmHg 98%
    23:00 +1°C° 0.2 mm 1 mps 733 mmHg 98%

    Tomorrow, 20 January, Monday

    Time Temperature Precipitation Wind Pressure Humidity
    00:00 +1°C° 0.2 mm 1 mps 733 mmHg 98%
    01:00 +1°C° 0.2 mm 1 mps 734 mmHg 98%
    02:00 +1°C° 0.1 mm 1 mps 734 mmHg 98%
    03:00 +1°C° 0.1 mm 1 mps 734 mmHg 98%
    04:00 +1°C° 0.1 mm 1 mps 734 mmHg 97%
    05:00 +1°C° 0.1 mm 1 mps 735 mmHg 97%
    06:00 +1°C° 0.1 mm 1 mps 736 mmHg 97%
    07:00 +1°C° 0.1 mm 1 mps 736 mmHg 97%
    08:00 +1°C° 0.1 mm 1 mps 737 mmHg 95%
    09:00 +1°C° 0.1 mm 1 mps 737 mmHg 93%
    10:00 +2°C° 0.1 mm 1 mps 738 mmHg 91%
    11:00 +2°C° 0 mm 1 mps 738 mmHg 89%
    12:00 +2°C° 0 mm 1 mps 738 mmHg 87%
    13:00 +3°C° 0 mm 1 mps 738 mmHg 84%
    14:00 +2°C° 0 mm 1 mps 738 mmHg 86%
    15:00 +2°C° 0 mm 1 mps 738 mmHg 88%
    16:00 +1°C° 0 mm 1 mps 738 mmHg 90%
    17:00 +1°C° 0 mm 1 mps 738 mmHg 90%
    18:00 0°C° 0 mm 1 mps 739 mmHg 91%
    19:00 -2°C° 0 mm 0 mps 739 mmHg 92%
    20:00 -1°C° 0 mm 1 mps 739 mmHg 91%
    21:00 -1°C° 0 mm 1 mps 739 mmHg 91%
    22:00 -1°C° 0 mm 1 mps 739 mmHg 91%
    23:00 -2°C° 0 mm 1 mps 739 mmHg 90%

    Day after tomorrow, 21 January, Tuesday

    Time Temperature Precipitation Wind Pressure Humidity
    00:00 -2°C° 0 mm 1 mps 738 mmHg 89%
    01:00 -2°C° 0 mm 1 mps 738 mmHg 89%
    02:00 -2°C° 0 mm 1 mps 738 mmHg 88%
    03:00 -2°C° 0 mm 1 mps 738 mmHg 86%
    04:00 -2°C° 0 mm 1 mps 737 mmHg 85%
    05:00 -2°C° 0 mm 1 mps 737 mmHg 84%
    06:00 -2°C° 0 mm 1 mps 737 mmHg 82%
    07:00 -2°C° 0 mm 1 mps 737 mmHg 81%
    08:00 0°C° 0 mm 1 mps 737 mmHg 77%
    09:00 +1°C° 0 mm 1 mps 736 mmHg 74%
    10:00 +2°C° 0 mm 1 mps 736 mmHg 71%
    11:00 +3°C° 0 mm 1 mps 736 mmHg 70%
    12:00 +4°C° 0 mm 1 mps 736 mmHg 68%
    13:00 +5°C° 0 mm 1 mps 736 mmHg 67%
    14:00 +4°C° 0 mm 1 mps 735 mmHg 71%
    15:00 +3°C° 0 mm 1 mps 735 mmHg 75%
    16:00 +2°C° 0 mm 1 mps 734 mmHg 79%
    17:00 +1°C° 0 mm 1 mps 734 mmHg 78%
    18:00 +1°C° 0 mm 1 mps 734 mmHg 77%
    19:00 0°C° 0 mm 1 mps 733 mmHg 76%
    20:00 0°C° 0 mm 1 mps 733 mmHg 74%
    21:00 0°C° 0 mm 1 mps 733 mmHg 73%
    22:00 0°C° 0 mm 1 mps 732 mmHg 71%
    23:00 0°C° 0 mm 1 mps 732 mmHg 71%

    22 January, Wednesday

    Time Temperature Precipitation Wind Pressure Humidity
    00:00 -2°C° 0 mm 2 mps 732 mmHg 70%
    01:00 -3°C° 0 mm 2 mps 732 mmHg 70%
    02:00 -3°C° 0 mm 2 mps 731 mmHg 70%
    03:00 -1°C° 0 mm 1 mps 731 mmHg 70%
    04:00 -1°C° 0 mm 1 mps 730 mmHg 69%
    05:00 -1°C° 0 mm 1 mps 730 mmHg 70%
    06:00 -1°C° 0 mm 1 mps 729 mmHg 70%
    07:00 -3°C° 0 mm 2 mps 729 mmHg 71%
    08:00 -2°C° 0 mm 2 mps 729 mmHg 68%
    09:00 +1°C° 0 mm 2 mps 729 mmHg 65%
    10:00 +2°C° 0 mm 2 mps 729 mmHg 62%
    11:00 +2°C° 0 mm 3 mps 729 mmHg 60%
    12:00 +3°C° 0 mm 3 mps 728 mmHg 59%
    13:00 +3°C° 0 mm 3 mps 728 mmHg 58%
    14:00 +2°C° 0 mm 3 mps 728 mmHg 64%
    15:00 +1°C° 0 mm 3 mps 727 mmHg 70%
    16:00 0°C° 0 mm 3 mps 727 mmHg 76%
    17:00 0°C° 0 mm 3 mps 727 mmHg 81%
    18:00 0°C° 0 mm 3 mps 727 mmHg 85%
    19:00 0°C° 0 mm 3 mps 727 mmHg 90%
    20:00 0°C° 0 mm 3 mps 727 mmHg 92%
    21:00 0°C° 0 mm 3 mps 728 mmHg 93%
    22:00 0°C° 0 mm 3 mps 728 mmHg 94%
    23:00 -1°C° 0.1 mm 3 mps 728 mmHg 93%

    23 January, Thursday

    Time Temperature Precipitation Wind Pressure Humidity
    00:00 -1°C° 0.1 mm 3 mps 728 mmHg 93%
    01:00 -1°C° 0.1 mm 3 mps 728 mmHg 92%
    02:00 -1°C° 0 mm 3 mps 728 mmHg 92%
    03:00 -2°C° 0 mm 3 mps 728 mmHg 92%
    04:00 -2°C° 0 mm 3 mps 728 mmHg 93%
    05:00 -2°C° 0.1 mm 3 mps 729 mmHg 92%
    06:00 -2°C° 0.1 mm 3 mps 729 mmHg 91%
    07:00 -2°C° 0.1 mm 3 mps 730 mmHg 90%
    08:00 -2°C° 0 mm 2 mps 730 mmHg 85%
    09:00 0°C° 0 mm 1 mps 730 mmHg 81%
    10:00 0°C° 0 mm 1 mps 731 mmHg 76%
    11:00 +1°C° 0 mm 1 mps 731 mmHg 72%
    12:00 +1°C° 0 mm 1 mps 731 mmHg 68%
    13:00 +1°C° 0 mm 0 mps 731 mmHg 65%
    14:00 0°C° 0 mm 0 mps 731 mmHg 69%
    15:00 -1°C° 0 mm 0 mps 731 mmHg 73%
    16:00 -2°C° 0 mm 0 mps 731 mmHg 77%
    17:00 -2°C° 0 mm 0 mps 731 mmHg 78%
    18:00 -2°C° 0 mm 1 mps 731 mmHg 79%
    19:00 -2°C° 0 mm 1 mps 731 mmHg 80%
    20:00 -2°C° 0 mm 1 mps 731 mmHg 79%
    21:00 -2°C° 0 mm 1 mps 731 mmHg 78%
    22:00 -2°C° 0 mm 1 mps 731 mmHg 78%
    23:00 -2°C° 0 mm 1 mps 731 mmHg 78%

    24 January, Friday

    Time Temperature Precipitation Wind Pressure Humidity
    00:00 -2°C° 0 mm 1 mps 730 mmHg 78%
    01:00 -2°C° 0 mm 1 mps 730 mmHg 78%
    02:00 -2°C° 0 mm 1 mps 730 mmHg 79%
    03:00 -2°C° 0 mm 1 mps 729 mmHg 80%
    04:00 -2°C° 0 mm 1 mps 729 mmHg 81%
    05:00 -2°C° 0 mm 1 mps 729 mmHg 80%
    06:00 -2°C° 0 mm 1 mps 728 mmHg 79%
    07:00 -2°C° 0 mm 1 mps 728 mmHg 78%
    08:00 -1°C° 0 mm 1 mps 728 mmHg 74%
    09:00 0°C° 0 mm 1 mps 728 mmHg 70%
    10:00 +1°C° 0 mm 1 mps 728 mmHg 66%
    11:00 +2°C° 0 mm 1 mps 728 mmHg 65%
    12:00 +3°C° 0 mm 1 mps 728 mmHg 63%
    13:00 +4°C° 0 mm 1 mps 727 mmHg 61%
    14:00 +3°C° 0 mm 1 mps 727 mmHg 65%
    15:00 +2°C° 0 mm 1 mps 726 mmHg 69%
    16:00 +1°C° 0 mm 1 mps 726 mmHg 73%
    17:00 +1°C° 0 mm 1 mps 726 mmHg 72%
    18:00 0°C° 0 mm 1 mps 725 mmHg 72%
    19:00 0°C° 0 mm 1 mps 725 mmHg 71%
    20:00 -1°C° 0 mm 1 mps 725 mmHg 69%
    21:00 -1°C° 0 mm 1 mps 725 mmHg 67%
    22:00 -1°C° 0 mm 1 mps 724 mmHg 66%
    23:00 -1°C° 0 mm 1 mps 724 mmHg 65%
    Show more